* Astronomy

Members Login
Username 
 
Password 
    Remember Me  
Post Info TOPIC: S/2016 J 1


L

Posts: 131433
Date:
S/2016 J 1
Permalink  
 


Orbital elements:
S/2016 J 1
Epoch 2017 Sept. 4.0 TT = JDT 2458000.5                 MPC
M  25.52802              (2000.0)            P               Q
n   0.59619561     Peri.  328.15054     +0.71132205     -0.38156323
a   0.1376723      Node   293.75814     -0.42885867     -0.90098610
e   0.1404545      Incl.  139.83916     -0.55686729     +0.20647894
P   1.65           H   16.8           P/d   603.83
From 15 observations 2016 Mar. 8-2017 Apr. 23, mean residual 0".24.

MPEC 2017 - L08



__________________
Page 1 of 1  sorted by
 
Quick Reply

Please log in to post quick replies.



Create your own FREE Forum
Report Abuse
Powered by ActiveBoard